Home > Weather > Mendrisio > Past weeks

Flag for Switzerland Past Weather in Mendrisio, Ticino, Switzerland — Yesterday and Last 2 Weeks

Now
81 °F

Scattered clouds.


Feels Like: 81 °F
Forecast: 49 / 54 °F
Wind: 3 mph from South

Location: Lugano Airport

Current Time: May 28, 2016 at 6:16:48 PM

Latest Report: May 28, 2016 at 5:20 PM


Visibility: N/A

Pressure: 29.89 "Hg

Humidity: 51%

Dew Point: 61 °F

Location of MendrisioLocation

Past Weather in Mendrisio — Graph

°F

Mendrisio Temperature Yesterday

Maximum temperature yesterday: 81 °F (at 2:20 PM)
Minimum temperature yesterday: 55 °F (at 4:20 AM)
Average temperature yesterday: 68 °F

High & Low Weather Summary for the Past Weeks

 TemperatureHumidityPressure
High81 °F (May 27, 2:20 PM)100% (May 13, 10:20 PM)30.15 "Hg (May 13, 10:20 PM)
Low41 °F (May 17, 4:50 AM)20% (May 15, 3:20 PM)29.47 "Hg (May 13, 4:20 PM)
Average61 °F66%29.93 "Hg
* Reported May 13 4:20 PM — May 28 4:20 PM, Mendrisio, Weather by CustomWeather, © 2016

Note: Actual official high and low records may vary slightly from our data, if they occured in-between our weather recording intervals... More about our weather records

Advertising

Mendrisio Weather History for the Previous 24 Hours

Scroll right to see more
 ConditionsComfort  
Time TempWeatherWind HumidityBarometerVisibility
4:20 PM
Sat, May 28
81 °FScattered clouds.6 mph48%29.92 "HgN/A
3:50 PM81 °FScattered clouds.5 mph51%29.92 "HgN/A
3:20 PM81 °FScattered clouds.6 mph48%29.92 "Hg6 mi
2:50 PM81 °FScattered clouds.3 mph48%29.92 "Hg6 mi
2:20 PM79 °FScattered clouds.3 mph48%29.92 "Hg6 mi
1:50 PM79 °FScattered clouds.5 mph51%29.95 "Hg6 mi
1:20 PM77 °FScattered clouds.3 mph54%29.95 "Hg6 mi
12:50 PM77 °FScattered clouds.3 mph51%29.95 "Hg6 mi
12:20 PM75 °FBroken clouds.3 mph54%29.98 "Hg6 mi
11:50 AM73 °FBroken clouds.5 mph57%29.98 "Hg5 mi
11:20 AM73 °FBroken clouds.1 mph65%29.98 "Hg5 mi
10:50 AM72 °FBroken clouds.3 mph65%29.98 "Hg5 mi
10:20 AM72 °FBroken clouds.2 mph65%29.98 "Hg5 mi
9:50 AM70 °FBroken clouds.1 mph69%29.98 "Hg5 mi
9:20 AM70 °FBroken clouds.1 mph64%29.98 "Hg5 mi
8:50 AM66 °FBroken clouds.2 mph78%29.98 "Hg5 mi
8:20 AM64 °FPartly sunny.1 mph78%29.98 "Hg5 mi
7:50 AM64 °FOvercast.1 mph83%30.01 "Hg6 mi
7:20 AM63 °FOvercast.1 mph88%29.98 "HgN/A
6:50 AM61 °FOvercast.1 mph88%29.98 "HgN/A
6:20 AM61 °FOvercast.2 mph88%29.98 "HgN/A
5:50 AM59 °FOvercast.3 mph94%29.98 "HgN/A
5:20 AM59 °FPassing clouds.1 mph94%29.98 "HgN/A
4:50 AM59 °FPassing clouds.1 mph88%29.98 "HgN/A
4:20 AM59 °FCool.No wind94%29.98 "HgN/A
3:50 AM61 °FPassing clouds.1 mph88%29.98 "HgN/A
3:20 AM61 °FPassing clouds.1 mph88%30.01 "HgN/A
2:50 AM61 °FPartly cloudy.1 mph88%30.01 "HgN/A
2:20 AM61 °FClear.1 mph88%30.01 "Hg10 mi
1:50 AM61 °FClear.1 mph88%30.01 "Hg10 mi
1:20 AM61 °FClear.1 mph88%30.01 "Hg10 mi
12:50 AM63 °FMild.2 mph83%30.01 "HgN/A
12:20 AM63 °FPassing clouds.1 mph83%30.01 "HgN/A
11:50 PM
Fri, May 27
63 °FClear.No wind83%30.01 "Hg10 mi
11:20 PM64 °FClear.1 mph78%30.01 "Hg10 mi
10:50 PM66 °FMild.1 mph73%30.01 "HgN/A
10:20 PM66 °FPassing clouds.3 mph73%30.01 "HgN/A
9:50 PM68 °FPassing clouds.3 mph69%30.01 "HgN/A
9:20 PM70 °FSunny.1 mph64%30.01 "Hg10 mi
8:50 PM72 °FSunny.3 mph57%29.98 "Hg10 mi
8:20 PM73 °FPassing clouds.3 mph57%29.98 "HgN/A
7:50 PM77 °FSunny.3 mph44%29.98 "Hg10 mi
7:20 PM79 °FPassing clouds.3 mph45%29.98 "HgN/A
6:50 PM81 °FPassing clouds.3 mph45%29.98 "HgN/A
6:20 PM81 °FPassing clouds.5 mph42%29.98 "HgN/A
Weather by CustomWeather, © 2016

See weather overviewHow to use our weather pages